Regional Weather Roundup
Issued by NWS Jackson, KY

Home | Current Version | Previous Version | Text Only | Print | Product List | Glossary Off
Versions: 1 2 3 4 5 6 7 8 9 10 11 12 13 14 15 16 17 18 19 20 21 22 23 24 25 26 27 28 29 30 31 32 33 34 35 36 37 38 39 40 41 42 43 44 45 46 47 48 49 50

000
ASUS43 KJKL 291510
RWRJKL

EAST KENTUCKY HOURLY WEATHER ROUNDUP
NATIONAL WEATHER SERVICE JACKSON KY
1100 AM EDT FRI AUG 29 2014

NOTE: "FAIR" INDICATES FEW OR NO CLOUDS BELOW 12,000 FEET WITH
NO SIGNIFICANT WEATHER AND/OR OBSTRUCTIONS TO VISIBILITY.

* THESE REPORTS ARE NOT UNDER NWS QUALITY CONTROL AND MAY NOT
  REPORT WEATHER SUCH AS PRECIPITATION AND FOG.

KYZ079-080-083-085-087-088-110-112-115-119-120-291600
...EASTERN KENTUCKY...

CITY           SKY/WX    TMP DP  RH WIND       PRES   REMARKS
JACKSON        SUNNY    N/A N/A N/A MISG      30.13S
LONDON         MOSUNNY   82  70  66 VRB5      30.12R
SOMERSET*      SUNNY     79  70  73 S3        30.11R
MONTICELLO*    SUNNY     84  75  74 CALM      30.11R HX  91
WILLIAMSBURG*  PTSUNNY   79  72  78 SE3       30.12R
MIDDLESBORO*   MOSUNNY   80  69  68 CALM      30.13S
HARLAN APT*    SUNNY     79  68  69 MISG      30.14S
HAZARD APT*    SUNNY     79  70  73 CALM      30.12
BLACK MTN*       N/A     72  66  83 S5          N/A
PIKEVILLE APT* SUNNY     77  68  73 CALM      30.13S
BIG SANDY*     SUNNY     78  69  73 CALM      30.12F
MOREHEAD APT*  SUNNY     77  64  65 VRB3      30.14R
$$

KYZ035-036-041-042-044-050-067-078-099-291600
...CENTRAL KENTUCKY...

CITY           SKY/WX    TMP DP  RH WIND       PRES   REMARKS
MT STERLING*   SUNNY     77  68  73 S5        30.12S
FLEMING/MASON* SUNNY     77  64  65 SE7       30.12S
DANVILLE*      SUNNY     81  72  74 S3        30.10S
RICHMOND*      SUNNY     81  70  69 CALM      30.10S
LEXINGTON      MOSUNNY   81  68  64 SE8       30.10S
FRANKFORT      MOSUNNY   80  68  66 E7        30.08S
$$

KYZ091>093-OHZ055-061-077-WVZ005-015-034-035-042-291600
...SOUTHERN OHIO/WEST VIRGINIA...

CITY           SKY/WX    TMP DP  RH WIND       PRES   REMARKS
COVINGTON      PTSUNNY   78  62  57 SE9       30.10S
COLUMBUS       MOSUNNY   75  54  47 SE12      30.14R
DAYTON         MOSUNNY   75  60  59 SE8       30.14R
WILMINGTON     MOSUNNY   72  60  66 SE8       30.13R
HUNTINGTON     SUNNY     75  65  70 NE3       30.11S
CHARLESTON     MOSUNNY   76  66  71 CALM      30.12S
PINEVILLE*     SUNNY     78  68  70 MISG      30.21S
BECKLEY        SUNNY     72  59  63 SE10      30.21S
BLUEFIELD      SUNNY     71  58  63 VRB5      30.24R
$$

VAZ002-007-008-TNZ017-027-036-066-071-291600
...SOUTHWEST VIRGINIA/EAST TENNESSEE...

CITY           SKY/WX    TMP DP  RH WIND       PRES   REMARKS
WISE*          SUNNY     79  64  61 S7        30.21S
JONESVILLE*      N/A     81  68  65 S5        30.16R
ABINGDON*      SUNNY     80  68  67 E8        30.18S
BRISTOL        MOSUNNY   82  67  60 CALM      30.14S
KNOXVILLE      MOSUNNY   83  71  67 CALM      30.10R
OAK RIDGE      SUNNY     83  71  67 CALM      30.12R
CROSSVILLE     SUNNY     81  63  54 W6        30.15R
NASHVILLE      MOSUNNY   86  64  47 S8        30.05S
$$

...KEY TO REMARKS...
VSB - VISIBILITY IN MILES
WCI - WIND CHILL INDEX
HX  - HEAT INDEX

$$



USA.gov is the U.S. government's official web portal to all federal, state and local government web resources and services.